Theta_e
321 321 322 321 321 321 321 321 321 321 322 322 322 322 322 322 321 313 308 316 319 333 328 314 312 311 312 311 314 315 310 306 308 311 314 319 321 322 327 324 325 328 328 329 339
320 320 321 321 321 321 321 320 321 321 321 322 322 321 321 322 316 308 325 332 336 333 313 312 311 310 310 310 312 311 308 307 312 317 316 320 322 322 322 322 324 326 330 335 338
320 320 321 321 321 321 320 320 320 321 321 321 321 321 321 322 309 313 341 337 335 334 313 312 311 310 308 308 308 308 307 309 310 314 319 320 320 322 321 319 324 324 327 334 336
319 319 320 321 320 320 320 320 319 320 320 320 320 321 322 317 304 314 340 339 340 322 313 311 309 308 307 307 307 305 309 309 311 316 318 318 321 318 321 323 326 329 331 333 335
318 318 319 320 320 319 319 319 318 318 318 319 320 322 315 305 307 322 338 336 318 312 313 309 310 310 309 308 307 306 308 309 314 316 319 320 319 318 319 323 325 330 331 332 333
317 317 317 318 318 318 318 317 317 317 318 319 321 322 308 304 315 323 316 311 313 312 310 311 313 313 310 309 308 310 309 314 317 319 319 318 318 318 318 325 328 329 329 331 333
316 316 316 317 317 318 318 316 316 317 318 320 322 318 304 308 316 318 316 312 312 313 311 313 314 312 311 309 311 311 311 314 316 318 317 318 315 314 319 328 327 328 330 331 333
316 316 316 316 317 317 317 317 317 318 319 320 321 312 304 313 315 316 318 315 313 312 311 313 314 312 311 312 312 310 311 309 313 317 316 317 311 317 323 326 325 327 328 330 331
315 315 315 316 317 317 317 316 317 318 319 320 313 310 307 319 315 319 320 317 315 313 313 314 314 311 313 309 308 310 306 307 309 317 316 316 311 318 325 326 325 325 327 328 332
315 314 315 315 316 316 315 315 316 316 318 319 315 307 312 312 317 317 318 317 314 314 314 313 313 312 310 311 303 304 305 308 309 314 317 314 313 318 322 323 324 326 326 328 329
313 314 314 314 315 314 311 304 307 308 307 306 307 308 310 315 316 315 315 315 315 315 310 310 310 306 307 307 308 307 309 309 311 313 311 310 311 313 316 319 321 323 324 326 329
312 312 314 314 314 314 309 303 305 305 302 305 306 307 311 313 310 314 317 313 312 308 309 309 306 309 309 308 309 311 308 308 309 312 312 310 309 313 316 320 322 322 325 327 329
312 312 313 314 314 309 303 304 306 306 302 307 308 308 312 312 310 311 315 312 310 308 307 306 307 308 308 309 310 308 309 308 307 309 310 310 308 311 314 321 324 325 326 328 329
312 311 313 314 306 304 304 307 306 308 305 305 310 312 311 312 310 315 315 313 310 307 307 307 310 307 311 308 310 306 308 308 308 307 302 308 299 308 310 316 321 325 326 327 329
311 311 312 312 305 306 306 308 306 312 293 306 310 315 311 310 311 312 314 314 308 306 310 306 308 309 309 307 309 307 310 310 309 307 306 305 303 305 310 311 317 323 325 328 329
311 311 312 311 308 308 309 309 312 303 293 305 310 307 307 308 309 311 311 314 311 311 313 309 313 312 311 311 310 311 310 309 308 307 301 302 303 303 308 309 315 320 323 324 324
310 311 312 311 304 309 309 313 303 297 306 304 304 306 306 305 306 308 307 307 306 306 306 310 310 313 315 310 312 309 307 301 299 301 299 303 303 304 309 312 316 317 320 321 322
309 311 311 314 312 310 314 309 297 300 302 308 304 304 304 305 305 305 305 304 307 310 306 304 302 311 314 311 309 308 306 302 293 297 300 304 300 305 311 315 317 318 319 320 321
308 312 311 311 313 312 312 300 300 302 307 307 304 303 302 304 305 305 304 305 306 311 308 306 304 312 313 314 311 308 307 307 302 300 300 302 304 309 312 314 314 316 317 317 318
310 309 310 312 314 315 308 298 303 306 310 308 301 304 301 302 303 304 304 307 308 310 315 311 305 310 313 313 313 311 310 304 305 296 293 299 300 304 309 312 312 313 314 316 318
312 309 313 313 316 314 304 304 307 311 312 308 306 303 303 303 303 303 304 309 312 312 315 312 311 308 310 309 308 309 308 305 305 302 298 296 301 309 312 313 312 314 316 317 318
312 305 315 316 310 307 307 308 304 309 311 309 310 310 309 306 303 305 306 309 317 316 312 312 313 306 306 311 314 311 307 305 303 299 301 301 302 312 314 314 315 314 316 317 318
306 311 317 316 305 305 307 306 308 308 309 309 310 312 312 309 308 309 311 314 317 315 315 316 309 304 305 307 311 309 308 306 307 307 301 299 302 312 313 314 315 315 314 314 316
310 306 311 311 307 308 306 305 305 309 309 310 311 312 312 311 312 310 310 315 317 314 316 319 309 307 300 302 307 306 307 307 307 305 303 304 305 310 312 313 315 316 314 314 315
313 311 310 303 306 306 307 304 303 305 309 309 311 313 311 310 310 310 311 313 315 316 315 318 309 308 307 308 308 307 307 307 306 306 304 305 306 310 313 314 315 317 314 313 313
309 309 314 312 311 305 303 304 304 306 306 306 312 313 314 313 312 310 312 312 313 316 315 315 310 309 306 308 308 306 307 307 307 307 307 306 307 313 315 316 315 315 314 314 313
309 311 313 306 308 304 305 306 308 310 311 313 312 315 315 315 317 317 316 317 318 318 315 314 311 307 303 306 306 302 307 307 308 309 309 306 310 314 313 314 315 315 315 314 313
Wind_Speed
7 7 7 9 7 9 11 10 11 12 13 13 14 13 14 15 15 2 4 3 4 2 6 4 3 3 2 3 2 2 1 3 5 3 2 4 6 2 2 4 3 4 1 3 16
7 8 8 8 7 9 11 10 10 12 12 13 14 14 14 15 4 3 3 7 3 7 4 7 5 4 3 2 2 2 3 6 3 5 3 7 7 7 4 5 6 3 4 11 14
8 8 8 7 8 10 11 10 10 12 12 14 14 14 13 12 4 2 2 10 11 8 1 2 5 2 3 1 3 3 5 3 2 6 5 7 8 6 7 6 6 8 9 12 13
8 9 10 8 9 9 11 10 10 12 13 13 14 15 18 3 2 2 3 7 4 3 5 4 3 2 1 2 3 4 8 7 3 4 6 5 7 5 9 2 4 4 14 12 11
8 10 9 9 10 10 11 10 10 12 14 12 13 14 6 3 6 3 4 7 7 4 4 3 3 3 2 2 3 4 4 3 5 5 2 5 3 2 4 6 5 13 13 12 10
7 9 8 10 11 11 11 9 10 10 12 10 10 11 3 3 4 3 5 5 6 4 4 3 2 2 2 3 4 2 2 8 6 8 5 3 1 2 11 7 10 15 14 12 12
10 8 9 10 11 11 11 10 9 10 12 8 7 3 1 7 5 3 6 3 6 6 4 4 2 2 1 4 2 2 1 6 14 3 5 6 2 10 15 7 15 13 13 12 12
8 8 9 10 10 11 10 11 9 11 11 5 2 1 8 2 3 5 6 5 5 3 2 1 4 3 2 0 3 3 3 4 12 7 3 4 8 18 14 13 14 12 10 11 9
9 8 8 9 10 10 11 10 11 10 5 3 1 1 8 1 2 2 5 3 7 4 4 3 1 2 1 3 3 8 8 7 4 12 2 5 6 16 12 16 13 8 7 7 7
7 7 7 8 9 9 11 8 5 6 3 3 1 3 5 3 3 2 2 2 1 6 5 1 2 2 4 3 5 5 6 6 5 7 17 17 14 15 15 15 10 7 6 4 4
7 7 7 7 7 7 6 2 2 1 2 4 0 4 6 8 4 3 3 4 2 5 3 3 3 7 5 1 8 10 12 14 8 3 13 13 17 16 12 13 5 5 7 2 3
7 6 6 5 4 3 1 1 2 2 6 5 6 8 7 3 2 1 6 3 3 5 1 3 4 1 4 7 12 14 15 8 11 15 15 16 16 12 16 12 11 7 6 7 7
7 6 4 3 1 3 1 2 1 3 3 3 4 4 2 5 1 1 1 2 4 5 6 3 4 3 4 5 9 6 7 9 16 9 8 8 14 13 11 14 13 13 9 9 9
8 5 2 1 1 1 2 3 3 4 0 0 3 3 4 2 1 1 1 2 3 3 2 4 5 6 9 7 4 2 3 8 15 9 5 6 5 8 11 13 14 12 12 10 10
7 4 3 1 0 2 2 3 6 1 4 1 2 2 2 2 3 1 2 3 5 2 2 4 6 6 8 3 2 2 4 12 8 9 5 7 4 5 5 9 12 14 12 11 10
7 2 8 3 2 3 4 4 2 0 2 2 1 4 3 1 1 2 1 7 3 5 9 3 1 5 4 4 2 8 8 9 4 1 2 5 3 4 2 4 5 9 12 11 10
4 6 6 1 0 2 3 1 0 1 2 4 3 3 3 2 2 2 2 3 3 5 4 4 5 2 4 2 6 2 2 3 4 1 1 3 3 4 2 4 5 6 8 7 7
5 8 3 4 3 4 1 2 1 1 4 2 3 5 3 2 3 3 3 4 3 6 4 3 5 6 6 4 3 4 1 1 3 3 3 0 2 5 2 2 5 5 6 6 6
6 1 3 2 10 2 1 2 2 4 2 4 3 4 2 1 3 3 1 5 1 3 4 4 3 1 5 5 2 3 2 2 6 1 3 1 2 4 3 5 6 7 8 8 7
1 1 2 2 9 1 2 3 3 4 3 1 4 1 5 3 3 2 3 2 3 0 1 5 5 1 2 2 10 3 6 1 2 2 2 1 3 2 8 9 4 4 4 3 2
1 1 4 2 2 1 3 4 4 5 6 6 4 4 2 4 2 2 4 2 2 4 3 4 2 2 2 6 3 1 2 5 3 3 1 1 1 1 10 8 4 2 1 2 0
1 1 3 2 2 1 3 4 1 4 0 3 3 3 5 3 3 3 4 2 2 4 5 2 4 3 3 2 1 1 2 1 2 2 2 3 2 1 5 6 4 3 2 3 1
0 1 1 1 3 1 1 2 3 3 3 3 1 2 3 4 4 3 2 1 2 1 6 7 3 4 3 3 2 0 2 3 4 1 3 3 3 4 5 6 5 5 5 4 0
1 2 1 3 1 3 2 2 3 2 3 0 3 3 4 3 3 5 4 3 2 3 6 7 4 2 1 2 2 3 2 3 1 2 3 3 1 8 9 8 8 7 6 2 1
2 1 1 4 2 2 2 1 2 4 2 3 3 3 4 4 3 3 2 5 4 2 4 3 5 3 3 1 1 3 0 3 3 1 3 3 4 1 10 10 7 7 5 2 2
1 1 2 2 2 1 2 2 0 4 2 2 4 3 1 4 4 8 6 2 3 3 3 2 4 3 3 2 1 3 3 3 1 2 3 1 3 3 7 10 7 7 5 2 3
2 2 3 1 3 2 2 1 1 2 1 1 2 4 6 2 1 7 7 8 6 4 4 3 5 2 3 2 1 1 3 2 1 2 1 1 4 7 8 9 8 6 5 1 3
Wind_Direction
321 325 328 318 350 325 315 328 334 330 325 324 319 331 331 325 313 194 245 234 200 243 167 162 129 94 105 107 100 150 190 237 259 188 258 150 170 115 74 135 181 172 191 67 122
318 320 315 313 338 314 309 322 329 324 321 321 318 329 331 332 301 271 246 196 277 185 175 171 138 139 127 106 105 218 244 239 227 162 211 180 181 157 183 192 207 159 82 123 141
310 313 301 314 320 305 305 315 322 322 319 316 321 327 330 324 293 96 344 207 210 207 193 85 113 153 159 174 166 150 249 305 317 219 222 201 178 170 211 225 230 200 138 143 145
303 306 305 309 301 298 299 308 316 320 315 316 328 331 325 265 80 71 351 186 191 217 149 116 106 126 222 212 157 254 254 256 332 156 185 192 142 183 213 226 17 135 145 144 152
296 295 302 300 296 289 291 302 311 317 310 322 330 338 349 330 256 98 80 127 129 176 177 147 161 151 221 205 180 228 293 46 332 162 203 142 199 208 328 275 64 128 139 133 132
300 291 302 289 286 287 287 301 307 310 303 325 329 329 335 287 112 114 140 185 155 161 148 154 204 226 194 207 224 238 267 46 28 109 111 207 157 151 23 15 111 132 129 130 128
303 302 292 284 281 287 286 298 304 300 298 324 326 27 296 244 145 122 176 242 178 168 159 214 197 221 157 173 276 301 4 76 37 64 70 321 211 43 6 98 105 115 116 113 98
288 284 279 283 285 285 295 287 300 293 292 320 331 122 258 232 171 252 192 210 213 216 200 198 198 262 253 273 67 57 61 78 29 358 41 260 44 17 11 95 91 93 94 92 89
304 300 296 287 285 280 283 295 294 287 265 256 160 356 275 360 218 98 186 193 155 153 182 144 229 27 192 74 113 33 75 68 60 15 25 42 36 15 71 81 84 97 119 104 115
316 305 295 281 280 299 296 268 259 283 117 189 204 273 250 316 297 306 177 242 158 125 118 103 58 73 41 19 76 92 101 60 83 48 76 73 68 58 69 94 117 138 140 160 123
330 314 291 289 295 307 311 218 259 163 153 226 353 279 286 301 262 170 179 155 94 74 81 39 80 35 14 98 112 105 120 123 113 75 62 68 55 33 28 58 69 23 81 116 44
330 318 299 284 283 314 205 69 81 33 318 235 250 273 268 266 308 106 167 151 78 72 51 87 59 36 70 146 117 111 124 116 90 97 92 86 67 57 35 26 30 38 56 60 50
331 321 303 303 288 242 44 170 72 185 260 292 210 246 265 187 119 275 214 124 76 56 42 49 4 205 185 143 102 85 139 166 142 125 107 89 61 45 46 45 50 46 41 39 38
325 322 301 202 251 36 248 158 9 183 286 265 245 232 158 240 69 275 245 115 63 74 148 54 8 121 107 82 24 68 316 177 147 171 117 341 111 45 17 48 47 50 44 41 32
325 318 198 215 229 204 61 313 115 211 144 160 172 76 128 191 134 71 356 49 95 85 220 51 51 74 75 33 358 27 108 140 119 94 163 40 117 100 23 39 32 32 30 36 37
317 227 154 175 244 258 294 143 85 236 224 126 195 179 133 16 76 103 78 56 109 77 58 76 131 46 34 51 27 139 97 73 69 95 106 13 292 127 18 329 31 45 40 34 36
287 181 171 319 204 322 303 91 202 197 339 147 152 170 142 133 95 91 77 59 126 111 72 68 33 48 25 127 94 49 167 169 200 145 46 335 233 75 341 16 11 28 46 40 41
96 141 235 242 302 326 232 78 110 334 258 319 152 111 159 148 52 92 101 123 93 91 100 118 146 8 355 33 23 56 315 3 292 197 156 107 199 102 351 82 81 68 61 64 59
117 148 263 263 202 308 136 105 247 211 291 335 131 130 104 163 127 111 60 176 133 159 128 143 119 53 49 54 314 110 60 61 108 39 228 46 154 197 189 154 105 72 60 55 48
49 265 259 20 148 160 107 211 242 227 292 266 162 146 158 154 125 124 201 131 123 166 298 166 125 13 52 174 64 24 124 202 113 173 243 164 267 224 187 188 122 106 67 76 54
62 267 15 110 147 129 184 216 271 246 227 194 190 121 141 136 91 112 165 88 84 103 103 136 92 153 243 29 9 111 124 70 93 339 288 275 160 192 193 164 149 134 27 165 118
54 191 26 186 117 327 156 194 294 286 93 255 221 108 139 121 111 156 165 92 44 184 109 59 105 105 70 42 5 18 77 68 311 151 49 336 72 159 194 151 144 123 117 160 335
124 58 92 287 165 152 224 258 247 311 303 326 116 51 73 127 120 160 124 62 75 116 150 173 43 120 153 161 141 356 73 97 105 181 162 303 42 136 151 162 180 167 158 167 113
190 122 63 57 15 154 146 270 299 259 258 341 113 110 107 112 30 146 139 58 90 94 83 98 93 124 220 71 83 149 140 140 70 269 129 240 293 189 189 178 162 164 172 160 22
6 124 337 159 138 117 108 319 334 327 310 25 74 65 141 117 99 123 132 127 63 139 63 72 100 106 54 269 133 91 126 202 237 346 261 9 235 358 185 169 155 160 174 187 16
36 210 97 84 65 197 45 213 229 313 285 9 108 83 157 141 192 177 142 161 145 79 77 30 128 139 83 15 207 126 72 94 217 164 260 290 245 30 126 137 154 171 176 233 5
16 287 280 349 89 196 209 214 105 5 221 22 144 103 59 38 70 87 95 78 101 129 113 74 132 131 125 360 86 222 22 351 154 253 280 302 21 151 153 166 159 163 188 263 7